When you browse on this site, cookies collect data to enhance your experience and personalize the content and advertising you see.
Visit our Privacy Policy to learn more. By continuing to use the site, you agree to this use of cookies and data.
  • In Spain
  • List of Countries
  • For 7 days
  • Water Temperature
  • Satellite Maps
  • Weather Map
  • Weather Widgets
  • user-avatar
    Login

    Hourly Weather Cacalosuchil

    Today, 25 April, Thursday

    Time Temperature Precipitation Wind Pressure Humidity
    00:00 +22°C° 0 mm 1 mps 627 mmHg 32%
    01:00 +22°C° 0 mm 1 mps 627 mmHg 33%
    02:00 +21°C° 0 mm 1 mps 626 mmHg 35%
    03:00 +21°C° 0 mm 1 mps 627 mmHg 36%
    04:00 +20°C° 0 mm 1 mps 627 mmHg 38%
    05:00 +20°C° 0 mm 1 mps 627 mmHg 38%
    06:00 +22°C° 0 mm 1 mps 628 mmHg 35%
    07:00 +24°C° 0 mm 1 mps 629 mmHg 33%
    08:00 +26°C° 0 mm 2 mps 630 mmHg 30%
    09:00 +28°C° 0 mm 2 mps 630 mmHg 26%
    10:00 +30°C° 0 mm 3 mps 630 mmHg 22%
    11:00 +33°C° 0 mm 3 mps 631 mmHg 19%
    12:00 +33°C° 0 mm 4 mps 630 mmHg 17%
    13:00 +34°C° 0 mm 4 mps 630 mmHg 16%
    14:00 +35°C° 0 mm 4 mps 630 mmHg 14%
    15:00 +34°C° 0 mm 4 mps 630 mmHg 15%
    16:00 +33°C° 0 mm 4 mps 629 mmHg 16%
    17:00 +31°C° 0 mm 3 mps 629 mmHg 16%
    18:00 +29°C° 0 mm 3 mps 629 mmHg 18%
    19:00 +27°C° 0 mm 2 mps 629 mmHg 20%
    20:00 +25°C° 0 mm 2 mps 629 mmHg 22%
    21:00 +25°C° 0 mm 1 mps 630 mmHg 23%
    22:00 +24°C° 0 mm 1 mps 630 mmHg 23%
    23:00 +23°C° 0 mm 1 mps 630 mmHg 24%

    Tomorrow, 26 April, Friday

    Time Temperature Precipitation Wind Pressure Humidity
    00:00 +23°C° 0 mm 1 mps 630 mmHg 28%
    01:00 +22°C° 0 mm 1 mps 629 mmHg 32%
    02:00 +22°C° 0 mm 1 mps 629 mmHg 35%
    03:00 +21°C° 0 mm 1 mps 629 mmHg 40%
    04:00 +20°C° 0 mm 2 mps 629 mmHg 45%
    05:00 +19°C° 0 mm 2 mps 629 mmHg 50%
    06:00 +23°C° 0 mm 2 mps 630 mmHg 46%
    07:00 +25°C° 0 mm 2 mps 631 mmHg 43%
    08:00 +27°C° 0 mm 2 mps 632 mmHg 39%
    09:00 +29°C° 0 mm 2 mps 632 mmHg 34%
    10:00 +30°C° 0 mm 2 mps 632 mmHg 30%
    11:00 +32°C° 0 mm 2 mps 633 mmHg 26%
    12:00 +32°C° 0 mm 2 mps 632 mmHg 25%
    13:00 +34°C° 0 mm 3 mps 632 mmHg 24%
    14:00 +34°C° 0 mm 3 mps 631 mmHg 23%
    15:00 +31°C° 0.2 mm 3 mps 631 mmHg 27%
    16:00 +30°C° 0.2 mm 3 mps 630 mmHg 32%
    17:00 +29°C° 0.2 mm 4 mps 630 mmHg 36%
    18:00 +27°C° 0.4 mm 3 mps 630 mmHg 40%
    19:00 +26°C° 0.4 mm 3 mps 630 mmHg 45%
    20:00 +24°C° 0.4 mm 2 mps 630 mmHg 49%
    21:00 +24°C° 0.2 mm 2 mps 630 mmHg 51%
    22:00 +23°C° 0.2 mm 2 mps 630 mmHg 53%
    23:00 +22°C° 0.2 mm 1 mps 630 mmHg 55%

    Day after tomorrow, 27 April, Saturday

    Time Temperature Precipitation Wind Pressure Humidity
    00:00 +22°C° 0.1 mm 1 mps 630 mmHg 56%
    01:00 +21°C° 0.1 mm 1 mps 629 mmHg 58%
    02:00 +21°C° 0.1 mm 1 mps 629 mmHg 59%
    03:00 +20°C° 0 mm 1 mps 629 mmHg 59%
    04:00 +20°C° 0 mm 1 mps 628 mmHg 60%
    05:00 +20°C° 0 mm 1 mps 628 mmHg 61%
    06:00 +22°C° 0 mm 1 mps 629 mmHg 54%
    07:00 +24°C° 0 mm 1 mps 630 mmHg 46%
    08:00 +27°C° 0 mm 1 mps 631 mmHg 39%
    09:00 +28°C° 0 mm 1 mps 631 mmHg 35%
    10:00 +30°C° 0 mm 2 mps 631 mmHg 32%
    11:00 +31°C° 0 mm 3 mps 631 mmHg 29%
    12:00 +33°C° 0 mm 3 mps 631 mmHg 28%
    13:00 +33°C° 0 mm 3 mps 630 mmHg 27%
    14:00 +33°C° 0 mm 3 mps 629 mmHg 25%
    15:00 +33°C° 0 mm 3 mps 629 mmHg 26%
    16:00 +31°C° 0 mm 3 mps 628 mmHg 26%
    17:00 +31°C° 0 mm 3 mps 628 mmHg 27%
    18:00 +30°C° 0.2 mm 2 mps 628 mmHg 30%
    19:00 +28°C° 0.2 mm 2 mps 629 mmHg 33%
    20:00 +27°C° 0.2 mm 1 mps 629 mmHg 36%
    21:00 +27°C° 0.1 mm 1 mps 629 mmHg 38%
    22:00 +26°C° 0.1 mm 1 mps 629 mmHg 40%
    23:00 +26°C° 0.1 mm 1 mps 629 mmHg 42%

    28 April, Sunday

    Time Temperature Precipitation Wind Pressure Humidity
    00:00 +25°C° 0 mm 1 mps 629 mmHg 43%
    01:00 +24°C° 0 mm 1 mps 628 mmHg 43%
    02:00 +24°C° 0 mm 1 mps 628 mmHg 44%
    03:00 +23°C° 0 mm 1 mps 628 mmHg 45%
    04:00 +22°C° 0 mm 1 mps 628 mmHg 45%
    05:00 +22°C° 0 mm 1 mps 628 mmHg 46%
    06:00 +24°C° 0 mm 1 mps 629 mmHg 41%
    07:00 +25°C° 0 mm 1 mps 630 mmHg 36%
    08:00 +27°C° 0 mm 1 mps 631 mmHg 31%
    09:00 +29°C° 0 mm 2 mps 631 mmHg 28%
    10:00 +30°C° 0 mm 2 mps 631 mmHg 25%
    11:00 +32°C° 0 mm 2 mps 631 mmHg 21%
    12:00 +33°C° 0 mm 3 mps 630 mmHg 21%
    13:00 +34°C° 0 mm 3 mps 630 mmHg 20%
    14:00 +34°C° 0 mm 3 mps 629 mmHg 19%
    15:00 +34°C° 0 mm 3 mps 629 mmHg 19%
    16:00 +32°C° 0 mm 2 mps 629 mmHg 20%
    17:00 +31°C° 0 mm 2 mps 628 mmHg 20%
    18:00 +30°C° 0.1 mm 2 mps 629 mmHg 22%
    19:00 +29°C° 0.1 mm 2 mps 629 mmHg 25%
    20:00 +28°C° 0.1 mm 2 mps 630 mmHg 27%
    21:00 +27°C° 0 mm 1 mps 630 mmHg 31%
    22:00 +26°C° 0 mm 1 mps 630 mmHg 34%
    23:00 +25°C° 0 mm 1 mps 629 mmHg 38%

    29 April, Monday

    Time Temperature Precipitation Wind Pressure Humidity
    00:00 +25°C° 0 mm 1 mps 629 mmHg 42%
    01:00 +22°C° 0 mm 0 mps 628 mmHg 45%
    02:00 +21°C° 0 mm 0 mps 628 mmHg 49%
    03:00 +21°C° 0 mm 0 mps 628 mmHg 51%
    04:00 +20°C° 0 mm 0 mps 628 mmHg 53%
    05:00 +22°C° 0 mm 1 mps 628 mmHg 54%
    06:00 +24°C° 0 mm 1 mps 629 mmHg 50%
    07:00 +26°C° 0 mm 1 mps 630 mmHg 46%
    08:00 +27°C° 0 mm 1 mps 631 mmHg 41%
    09:00 +29°C° 0.1 mm 2 mps 631 mmHg 37%
    10:00 +31°C° 0.1 mm 2 mps 631 mmHg 33%
    11:00 +32°C° 0.1 mm 2 mps 631 mmHg 29%
    12:00 +34°C° 0.1 mm 2 mps 630 mmHg 27%
    13:00 +34°C° 0.1 mm 3 mps 630 mmHg 25%
    14:00 +35°C° 0.1 mm 3 mps 629 mmHg 23%
    15:00 +34°C° 0.1 mm 2 mps 629 mmHg 24%
    16:00 +32°C° 0.1 mm 2 mps 629 mmHg 25%
    17:00 +32°C° 0.1 mm 2 mps 629 mmHg 26%
    18:00 +30°C° 0.3 mm 2 mps 629 mmHg 31%
    19:00 +29°C° 0.3 mm 3 mps 630 mmHg 36%
    20:00 +28°C° 0.3 mm 3 mps 630 mmHg 41%
    21:00 +27°C° 0.4 mm 2 mps 630 mmHg 45%
    22:00 +25°C° 0.4 mm 2 mps 630 mmHg 49%
    23:00 +24°C° 0.4 mm 1 mps 629 mmHg 53%

    30 April, Tuesday

    Time Temperature Precipitation Wind Pressure Humidity
    00:00 +24°C° 0.1 mm 1 mps 629 mmHg 53%
    01:00 +23°C° 0.1 mm 1 mps 628 mmHg 54%
    02:00 +23°C° 0.1 mm 1 mps 628 mmHg 54%
    03:00 +23°C° 0 mm 1 mps 628 mmHg 53%
    04:00 +22°C° 0 mm 1 mps 628 mmHg 53%
    05:00 +22°C° 0 mm 1 mps 628 mmHg 52%
    06:00 +24°C° 0 mm 1 mps 629 mmHg 46%
    07:00 +26°C° 0 mm 1 mps 630 mmHg 41%
    08:00 +28°C° 0 mm 1 mps 631 mmHg 35%
    09:00 +30°C° 0 mm 2 mps 631 mmHg 32%
    10:00 +31°C° 0 mm 2 mps 631 mmHg 29%
    11:00 +34°C° 0 mm 2 mps 631 mmHg 27%
    12:00 +34°C° 0.1 mm 2 mps 630 mmHg 26%
    13:00 +35°C° 0.1 mm 2 mps 630 mmHg 25%
    14:00 +35°C° 0.1 mm 3 mps 629 mmHg 25%
    15:00 +34°C° 0.2 mm 2 mps 629 mmHg 27%
    16:00 +32°C° 0.2 mm 1 mps 629 mmHg 29%
    17:00 +31°C° 0.2 mm 1 mps 629 mmHg 31%
    18:00 +30°C° 0.2 mm 1 mps 629 mmHg 35%
    19:00 +28°C° 0.2 mm 2 mps 629 mmHg 40%
    20:00 +27°C° 0.2 mm 3 mps 630 mmHg 44%
    21:00 +26°C° 1.9 mm 2 mps 629 mmHg 51%
    22:00 +24°C° 1.9 mm 2 mps 629 mmHg 58%
    23:00 +23°C° 1.9 mm 2 mps 629 mmHg 64%
    Show more